Station History

Weather Underground - logo

Station Historical Data
Daily Summary for July 3, 2017 Units:  English    Metric   Both
« Previous Day
Next Day »
Daily Weekly Monthly Yearly Custom
  High: Low: Average:
Temperature: 100.3 °F 65.7 °F 83.1 °F
Dew Point: 68.2 °F 52.1 °F 61.6 °F
Humidity: 74 % 21 % 52 %
Wind Speed: 5.8 mph 0.0 mph 1.5 mph
Wind Gust: 5.8 mph - -
Wind:- - SSW
Pressure: 29.94 in 29.80 in -
Precipitation: 0.00 in    
Historical Graphs
 
 
Tabular Data for July 3, 2017
Time Temperature Dew Point Pressure Wind Wind Speed Wind Gust Humidity Rainfall Rate (Hourly)
00:01 74.4 °F 62.7 °F 29.84 in Calm     67 % 0.00 in
00:06 74.3 °F 62.6 °F 29.84 in Calm     67 % 0.00 in
00:11 74.3 °F 62.6 °F 29.84 in Calm     67 % 0.00 in
00:16 74.2 °F 62.5 °F 29.84 in Calm     67 % 0.00 in
00:17 74.2 °F 62.5 °F 29.84 in Calm     67 % 0.00 in
00:22 74.0 °F 62.3 °F 29.84 in North 1.2 mph   67 % 0.00 in
00:27 73.9 °F 62.2 °F 29.84 in NNE 1.2 mph 1.2 mph 67 % 0.00 in
00:32 73.6 °F 62.0 °F 29.84 in NNE 1.2 mph 1.2 mph 67 % 0.00 in
00:37 73.3 °F 61.7 °F 29.84 in NNE 1.2 mph 1.2 mph 67 % 0.00 in
00:42 73.1 °F 61.9 °F 29.84 in Calm     68 % 0.00 in
00:47 72.8 °F 61.6 °F 29.84 in Calm     68 % 0.00 in
00:52 72.6 °F 61.4 °F 29.85 in Calm     68 % 0.00 in
00:57 72.4 °F 61.2 °F 29.84 in Calm     68 % 0.00 in
01:02 72.1 °F 61.0 °F 29.84 in Calm     68 % 0.00 in
01:07 72.0 °F 60.9 °F 29.84 in NNE 1.2 mph   68 % 0.00 in
01:12 72.0 °F 60.9 °F 29.84 in Calm     68 % 0.00 in
01:17 71.8 °F 61.1 °F 29.84 in NNE 1.2 mph 1.2 mph 69 % 0.00 in
01:22 71.6 °F 60.9 °F 29.84 in Calm     69 % 0.00 in
01:27 71.4 °F 60.7 °F 29.84 in NE 1.2 mph   69 % 0.00 in
01:32 71.3 °F 61.0 °F 29.84 in Calm     70 % 0.00 in
01:37 71.1 °F 60.8 °F 29.84 in NE 1.2 mph 1.2 mph 70 % 0.00 in
01:42 71.0 °F 60.7 °F 29.84 in NE 1.2 mph 1.2 mph 70 % 0.00 in
01:48 71.0 °F 60.7 °F 29.84 in NE 1.2 mph   70 % 0.00 in
01:53 70.9 °F 60.6 °F 29.84 in NE 1.2 mph 1.2 mph 70 % 0.00 in
01:58 70.8 °F 60.5 °F 29.84 in Calm     70 % 0.00 in
02:03 70.6 °F 60.3 °F 29.84 in Calm     70 % 0.00 in
02:08 70.5 °F 60.2 °F 29.85 in Calm     70 % 0.00 in
02:13 70.4 °F 60.1 °F 29.85 in NE 1.2 mph 1.2 mph 70 % 0.00 in
02:18 70.3 °F 60.4 °F 29.85 in NE 1.2 mph 1.2 mph 71 % 0.00 in
02:23 70.0 °F 60.2 °F 29.84 in Calm     71 % 0.00 in
02:28 69.9 °F 60.1 °F 29.85 in Calm     71 % 0.00 in
02:33 69.7 °F 59.9 °F 29.85 in NE 1.2 mph   71 % 0.00 in
02:38 69.7 °F 59.9 °F 29.85 in Calm     71 % 0.00 in
02:43 69.7 °F 59.5 °F 29.85 in Calm     70 % 0.00 in
02:48 69.7 °F 59.5 °F 29.85 in Calm     70 % 0.00 in
02:53 69.7 °F 59.5 °F 29.85 in Calm     70 % 0.00 in
02:58 69.7 °F 59.1 °F 29.85 in Calm     69 % 0.00 in
03:03 69.9 °F 59.3 °F 29.85 in Calm     69 % 0.00 in
03:08 69.9 °F 59.3 °F 29.85 in Calm     69 % 0.00 in
03:13 69.8 °F 58.8 °F 29.85 in NE 1.2 mph   68 % 0.00 in
03:18 69.6 °F 59.0 °F 29.85 in NE 1.2 mph   69 % 0.00 in
03:23 69.6 °F 58.6 °F 29.85 in Calm     68 % 0.00 in
03:28 69.5 °F 58.9 °F 29.85 in Calm     69 % 0.00 in
03:33 69.3 °F 58.7 °F 29.85 in Calm     69 % 0.00 in
03:38 69.1 °F 58.1 °F 29.85 in NE 1.2 mph 1.2 mph 68 % 0.00 in
03:43 68.9 °F 57.9 °F 29.85 in Calm     68 % 0.00 in
03:48 69.0 °F 57.2 °F 29.85 in Calm     66 % 0.00 in
03:53 69.0 °F 56.7 °F 29.85 in Calm     65 % 0.00 in
03:58 68.9 °F 57.1 °F 29.85 in Calm     66 % 0.00 in
04:03 68.7 °F 57.3 °F 29.85 in Calm     67 % 0.00 in
04:08 68.5 °F 57.1 °F 29.86 in Calm     67 % 0.00 in
04:13 68.3 °F 57.3 °F 29.86 in Calm     68 % 0.00 in
04:18 68.1 °F 57.1 °F 29.86 in Calm     68 % 0.00 in
04:23 67.9 °F 56.9 °F 29.86 in Calm     68 % 0.00 in
04:28 67.8 °F 56.9 °F 29.86 in Calm     68 % 0.00 in
04:34 67.7 °F 57.2 °F 29.86 in Calm     69 % 0.00 in
04:39 67.7 °F 57.2 °F 29.86 in Calm     69 % 0.00 in
04:44 67.7 °F 57.2 °F 29.86 in Calm     69 % 0.00 in
04:49 67.6 °F 57.9 °F 29.86 in Calm     71 % 0.00 in
04:54 67.4 °F 57.3 °F 29.86 in Calm     70 % 0.00 in
04:59 67.3 °F 57.2 °F 29.86 in Calm     70 % 0.00 in
05:04 67.2 °F 56.7 °F 29.86 in Calm     69 % 0.00 in
05:09 67.2 °F 56.3 °F 29.86 in Calm     68 % 0.00 in
05:14 67.3 °F 56.4 °F 29.86 in Calm     68 % 0.00 in
05:19 67.2 °F 56.3 °F 29.87 in NE 1.2 mph   68 % 0.00 in
05:24 67.0 °F 56.1 °F 29.87 in Calm     68 % 0.00 in
05:29 66.8 °F 56.3 °F 29.87 in Calm     69 % 0.00 in
05:34 66.5 °F 56.4 °F 29.87 in Calm     70 % 0.00 in
05:39 66.4 °F 56.3 °F 29.87 in Calm     70 % 0.00 in
05:44 66.2 °F 56.1 °F 29.88 in Calm   0.1 mph 70 % 0.00 in
05:49 66.2 °F 56.1 °F 29.88 in Calm     70 % 0.00 in
05:54 66.2 °F 56.5 °F 29.88 in NE 1.2 mph 1.2 mph 71 % 0.00 in
05:59 66.0 °F 56.3 °F 29.88 in Calm     71 % 0.00 in
06:04 65.9 °F 56.6 °F 29.89 in Calm     72 % 0.00 in
06:09 65.8 °F 56.5 °F 29.89 in NE 1.2 mph   72 % 0.00 in
06:14 65.7 °F 56.8 °F 29.89 in NE 1.0 mph   73 % 0.00 in
06:19 65.8 °F 56.9 °F 29.89 in Calm     73 % 0.00 in
06:24 66.0 °F 57.5 °F 29.89 in Calm   0.2 mph 74 % 0.00 in
06:29 66.3 °F 57.8 °F 29.89 in Calm     74 % 0.00 in
06:34 66.5 °F 58.0 °F 29.90 in NE 1.2 mph   74 % 0.00 in
06:35 66.5 °F 58.0 °F 29.90 in Calm     74 % 0.00 in
06:40 66.8 °F 58.2 °F 29.90 in Calm     74 % 0.00 in
06:45 67.3 °F 58.7 °F 29.90 in ENE 1.2 mph   74 % 0.00 in
06:50 68.2 °F 58.8 °F 29.90 in ENE 1.2 mph   72 % 0.00 in
06:51 68.4 °F 59.0 °F 29.90 in Calm   0.2 mph 72 % 0.00 in
06:56 69.1 °F 58.9 °F 29.90 in ESE 2.3 mph 2.3 mph 70 % 0.00 in
07:01 69.7 °F 59.1 °F 29.91 in SE 1.0 mph 1.0 mph 69 % 0.00 in
07:06 70.1 °F 59.0 °F 29.91 in ESE 2.3 mph 2.3 mph 68 % 0.00 in
07:11 70.5 °F 59.4 °F 29.91 in East 2.3 mph   68 % 0.00 in
07:17 70.9 °F 59.4 °F 29.91 in East 2.3 mph 2.3 mph 67 % 0.00 in
07:22 71.2 °F 60.1 °F 29.91 in SSE 3.5 mph 3.5 mph 68 % 0.00 in
07:27 71.6 °F 60.1 °F 29.91 in ESE 3.5 mph 3.5 mph 67 % 0.00 in
07:32 72.1 °F 60.5 °F 29.92 in East 3.5 mph 3.5 mph 67 % 0.00 in
07:37 72.5 °F 60.9 °F 29.92 in East 1.2 mph   67 % 0.00 in
07:42 72.8 °F 60.8 °F 29.92 in ESE 3.5 mph 3.5 mph 66 % 0.00 in
07:47 73.2 °F 61.2 °F 29.92 in ESE 1.2 mph 1.2 mph 66 % 0.00 in
07:52 73.8 °F 61.7 °F 29.92 in SSE 2.3 mph 2.3 mph 66 % 0.00 in
07:57 74.0 °F 61.5 °F 29.92 in SE 2.3 mph   65 % 0.00 in
08:02 74.3 °F 61.8 °F 29.92 in East 3.5 mph 3.5 mph 65 % 0.00 in
08:07 75.0 °F 62.0 °F 29.93 in SE 3.5 mph 3.5 mph 64 % 0.00 in
08:12 75.3 °F 61.8 °F 29.93 in ESE 3.0 mph 3.0 mph 63 % 0.00 in
08:17 75.6 °F 62.1 °F 29.93 in South 3.5 mph   63 % 0.00 in
08:23 76.2 °F 62.2 °F 29.93 in ENE 2.0 mph 2.0 mph 62 % 0.00 in
08:28 76.7 °F 62.7 °F 29.93 in SSE 1.2 mph 1.2 mph 62 % 0.00 in
08:33 77.2 °F 62.2 °F 29.93 in SSW 3.5 mph 3.5 mph 60 % 0.00 in
08:38 77.4 °F 62.4 °F 29.93 in ESE 2.3 mph 2.3 mph 60 % 0.00 in
08:43 77.7 °F 62.7 °F 29.93 in SSE 2.0 mph   60 % 0.00 in
08:48 77.8 °F 62.3 °F 29.93 in SE 3.5 mph 3.5 mph 59 % 0.00 in
08:53 78.3 °F 63.3 °F 29.94 in SE 2.3 mph 2.3 mph 60 % 0.00 in
08:58 78.9 °F 62.4 °F 29.93 in SSE 4.6 mph 4.6 mph 57 % 0.00 in
09:03 79.2 °F 62.7 °F 29.93 in SSW 1.2 mph 1.2 mph 57 % 0.00 in
09:08 79.7 °F 63.1 °F 29.93 in SSE 3.5 mph 3.5 mph 57 % 0.00 in
09:13 80.1 °F 63.0 °F 29.93 in South 2.3 mph 2.3 mph 56 % 0.00 in
09:18 80.2 °F 62.6 °F 29.93 in SSE 4.6 mph 4.6 mph 55 % 0.00 in
09:23 80.5 °F 63.4 °F 29.93 in South 2.3 mph 2.3 mph 56 % 0.00 in
09:28 81.3 °F 64.1 °F 29.93 in SE 3.0 mph 3.0 mph 56 % 0.00 in
09:33 81.5 °F 63.3 °F 29.93 in SSE 3.5 mph 3.5 mph 54 % 0.00 in
09:38 81.9 °F 63.6 °F 29.93 in SSE 3.0 mph 3.0 mph 54 % 0.00 in
09:43 82.2 °F 63.9 °F 29.93 in ESE 1.2 mph 1.4 mph 54 % 0.00 in
09:49 82.6 °F 64.3 °F 29.93 in South 3.5 mph 3.5 mph 54 % 0.00 in
09:54 82.8 °F 63.9 °F 29.93 in SSE 2.3 mph 2.3 mph 53 % 0.00 in
09:59 83.4 °F 63.4 °F 29.93 in SSE 1.2 mph 1.8 mph 51 % 0.00 in
10:04 84.0 °F 64.5 °F 29.94 in South 2.3 mph 2.3 mph 52 % 0.00 in
10:09 84.3 °F 64.2 °F 29.93 in South 3.5 mph 3.5 mph 51 % 0.00 in
10:14 84.6 °F 63.3 °F 29.93 in SSE 3.5 mph 3.5 mph 49 % 0.00 in
10:19 85.0 °F 64.8 °F 29.93 in SSW 1.2 mph 1.2 mph 51 % 0.00 in
10:24 85.7 °F 64.9 °F 29.93 in SE 1.2 mph 1.2 mph 50 % 0.00 in
10:29 86.0 °F 65.2 °F 29.93 in South 1.2 mph 1.2 mph 50 % 0.00 in
10:34 86.2 °F 64.8 °F 29.93 in East 3.5 mph 3.5 mph 49 % 0.00 in
10:39 86.2 °F 64.8 °F 29.94 in NNW 3.5 mph 3.5 mph 49 % 0.00 in
10:44 86.4 °F 66.7 °F 29.93 in ESE 1.2 mph 1.2 mph 52 % 0.00 in
10:49 87.2 °F 65.7 °F 29.93 in South 1.2 mph 1.2 mph 49 % 0.00 in
10:54 87.7 °F 65.6 °F 29.93 in ENE 3.5 mph 3.5 mph 48 % 0.00 in
10:59 87.5 °F 64.8 °F 29.93 in North 3.5 mph 3.5 mph 47 % 0.00 in
11:04 87.4 °F 66.5 °F 29.93 in South 2.3 mph 2.3 mph 50 % 0.00 in
11:09 87.7 °F 65.0 °F 29.93 in WNW 1.2 mph 1.2 mph 47 % 0.00 in
11:14 87.5 °F 66.0 °F 29.94 in South 2.0 mph 2.0 mph 49 % 0.00 in
11:19 88.3 °F 66.1 °F 29.93 in East 2.3 mph 2.3 mph 48 % 0.00 in
11:24 88.4 °F 65.0 °F 29.93 in NNW 2.3 mph 2.3 mph 46 % 0.00 in
11:29 88.3 °F 66.7 °F 29.93 in Calm   0.2 mph 49 % 0.00 in
11:34 88.5 °F 66.3 °F 29.93 in East 3.5 mph 3.5 mph 48 % 0.00 in
11:39 89.1 °F 66.9 °F 29.93 in West 3.5 mph 3.5 mph 48 % 0.00 in
11:44 89.2 °F 67.5 °F 29.93 in SSW 3.5 mph 3.5 mph 49 % 0.00 in
11:49 89.5 °F 66.0 °F 29.93 in WNW 2.3 mph 2.3 mph 46 % 0.00 in
11:54 89.9 °F 67.0 °F 29.93 in ESE 1.2 mph 1.2 mph 47 % 0.00 in
11:59 90.0 °F 67.1 °F 29.93 in SSW 1.2 mph 1.2 mph 47 % 0.00 in
12:04 90.7 °F 67.7 °F 29.93 in SSE 2.3 mph 2.3 mph 47 % 0.00 in
12:09 91.3 °F 66.3 °F 29.93 in NNW 1.2 mph 1.2 mph 44 % 0.00 in
12:14 91.1 °F 67.4 °F 29.93 in NNW 2.3 mph 2.3 mph 46 % 0.00 in
12:19 91.8 °F 64.7 °F 29.92 in ESE 2.3 mph 2.3 mph 41 % 0.00 in
12:24 92.0 °F 66.3 °F 29.92 in NW 2.3 mph 2.3 mph 43 % 0.00 in
12:29 92.4 °F 66.7 °F 29.92 in NW 1.2 mph 1.2 mph 43 % 0.00 in
12:34 92.7 °F 64.8 °F 29.92 in SSE 3.5 mph 3.5 mph 40 % 0.00 in
12:39 93.4 °F 68.2 °F 29.92 in SE 2.3 mph 2.3 mph 44 % 0.00 in
12:44 93.6 °F 65.6 °F 29.92 in SSE 2.3 mph 2.3 mph 40 % 0.00 in
12:49 93.8 °F 65.8 °F 29.92 in WSW 2.0 mph 2.0 mph 40 % 0.00 in
12:54 93.9 °F 65.2 °F 29.92 in NNE 1.2 mph 1.2 mph 39 % 0.00 in
12:59 94.8 °F 65.2 °F 29.92 in NNW 1.2 mph 1.2 mph 38 % 0.00 in
13:04 94.6 °F 65.1 °F 29.92 in SSE 1.2 mph   38 % 0.00 in
13:09 94.7 °F 64.4 °F 29.91 in NNW 2.3 mph 2.3 mph 37 % 0.00 in
13:14 94.7 °F 65.9 °F 29.91 in NW 3.5 mph 3.5 mph 39 % 0.00 in
13:19 95.0 °F 65.4 °F 29.91 in WNW 2.0 mph 2.0 mph 38 % 0.00 in
13:25 95.2 °F 64.8 °F 29.91 in NW 3.5 mph 3.5 mph 37 % 0.00 in
13:30 94.9 °F 65.3 °F 29.90 in NNE 2.3 mph 2.3 mph 38 % 0.00 in
13:35 95.2 °F 62.4 °F 29.90 in NNE 2.3 mph 2.3 mph 34 % 0.00 in
13:40 95.5 °F 62.7 °F 29.90 in WSW 2.3 mph 2.3 mph 34 % 0.00 in
13:45 95.7 °F 62.8 °F 29.90 in West 3.5 mph 3.5 mph 34 % 0.00 in
13:50 95.4 °F 61.7 °F 29.90 in North 2.3 mph 2.3 mph 33 % 0.00 in
13:55 95.7 °F 61.1 °F 29.89 in NNW 2.3 mph 2.3 mph 32 % 0.00 in
14:00 95.7 °F 61.1 °F 29.89 in North 3.5 mph 3.5 mph 32 % 0.00 in
14:05 96.3 °F 60.7 °F 29.89 in WNW 2.3 mph 2.3 mph 31 % 0.00 in
14:10 96.9 °F 60.3 °F 29.88 in WSW 2.3 mph 2.3 mph 30 % 0.00 in
14:15 96.5 °F 60.0 °F 29.88 in WNW 3.5 mph 3.5 mph 30 % 0.00 in
14:20 97.3 °F 60.7 °F 29.88 in NW 2.3 mph 2.3 mph 30 % 0.00 in
14:25 97.5 °F 60.9 °F 29.88 in NW 3.5 mph 3.5 mph 30 % 0.00 in
14:30 97.2 °F 57.6 °F 29.88 in NW 3.5 mph 3.5 mph 27 % 0.00 in
14:35 98.1 °F 60.4 °F 29.88 in West 2.3 mph 2.3 mph 29 % 0.00 in
14:40 98.4 °F 57.6 °F 29.88 in WSW 3.5 mph 3.5 mph 26 % 0.00 in
14:45 98.5 °F 58.8 °F 29.87 in WNW 2.3 mph 2.3 mph 27 % 0.00 in
14:50 98.6 °F 59.9 °F 29.87 in West 3.5 mph 3.5 mph 28 % 0.00 in
14:55 99.0 °F 61.2 °F 29.87 in SSW 1.2 mph 1.2 mph 29 % 0.00 in
15:00 99.6 °F 62.7 °F 29.87 in WNW 3.5 mph 3.5 mph 30 % 0.00 in
15:05 99.7 °F 60.8 °F 29.87 in NNW 3.5 mph 3.5 mph 28 % 0.00 in
15:10 99.3 °F 63.3 °F 29.87 in NNE 1.2 mph 1.2 mph 31 % 0.00 in
15:15 100.1 °F 63.1 °F 29.86 in NW 3.5 mph 3.5 mph 30 % 0.00 in
15:20 99.3 °F 63.3 °F 29.86 in NW 3.5 mph 3.5 mph 31 % 0.00 in
15:25 99.8 °F 61.9 °F 29.86 in NW 1.2 mph 1.2 mph 29 % 0.00 in
15:30 99.9 °F 63.9 °F 29.86 in East 2.3 mph 2.3 mph 31 % 0.00 in
15:35 100.1 °F 61.1 °F 29.86 in North 3.0 mph 3.0 mph 28 % 0.00 in
15:40 99.8 °F 62.8 °F 29.85 in West 2.3 mph 2.3 mph 30 % 0.00 in
15:45 100.1 °F 62.1 °F 29.85 in NW 3.5 mph 3.5 mph 29 % 0.00 in
15:50 100.1 °F 61.1 °F 29.85 in NW 2.3 mph 2.3 mph 28 % 0.00 in
15:55 99.9 °F 59.9 °F 29.85 in NNE 2.3 mph 2.3 mph 27 % 0.00 in
16:00 99.7 °F 59.8 °F 29.85 in NW 3.5 mph 3.5 mph 27 % 0.00 in
16:05 99.5 °F 61.6 °F 29.84 in NW 2.3 mph 2.3 mph 29 % 0.00 in
16:10 100.1 °F 62.1 °F 29.84 in SSW 1.2 mph 1.2 mph 29 % 0.00 in
16:15 100.3 °F 59.2 °F 29.84 in WNW 3.5 mph 3.5 mph 26 % 0.00 in
16:20 99.9 °F 58.9 °F 29.84 in West 3.5 mph 3.5 mph 26 % 0.00 in
16:25 99.9 °F 57.8 °F 29.84 in WNW 3.5 mph 3.5 mph 25 % 0.00 in
16:30 99.9 °F 61.0 °F 29.83 in NNW 2.0 mph 2.0 mph 28 % 0.00 in
16:35 99.5 °F 57.4 °F 29.83 in NW 4.0 mph 4.0 mph 25 % 0.00 in
16:40 98.9 °F 55.8 °F 29.83 in NW 4.6 mph 4.6 mph 24 % 0.00 in
16:45 98.8 °F 56.9 °F 29.83 in NNW 4.0 mph 4.0 mph 25 % 0.00 in
16:50 98.9 °F 56.9 °F 29.83 in NNW 3.5 mph 3.5 mph 25 % 0.00 in
16:55 98.8 °F 56.9 °F 29.83 in WNW 5.8 mph 5.8 mph 25 % 0.00 in
17:00 98.5 °F 56.6 °F 29.83 in NW 3.5 mph 3.5 mph 25 % 0.00 in
17:05 98.2 °F 57.4 °F 29.83 in NW 3.5 mph 3.5 mph 26 % 0.00 in
17:10 98.3 °F 58.6 °F 29.82 in NW 3.5 mph 3.5 mph 27 % 0.00 in
17:15 98.2 °F 57.4 °F 29.82 in West 3.5 mph 3.5 mph 26 % 0.00 in
17:20 98.3 °F 57.5 °F 29.82 in WNW 3.5 mph 3.5 mph 26 % 0.00 in
17:25 98.5 °F 56.6 °F 29.82 in NW 2.3 mph 2.3 mph 25 % 0.00 in
17:30 98.4 °F 56.5 °F 29.82 in NNW 3.5 mph 3.5 mph 25 % 0.00 in
17:35 98.5 °F 55.5 °F 29.81 in NW 2.3 mph 2.3 mph 24 % 0.00 in
17:40 98.7 °F 53.3 °F 29.81 in NW 3.5 mph 3.5 mph 22 % 0.00 in
17:45 98.6 °F 53.2 °F 29.81 in NW 2.3 mph 2.3 mph 22 % 0.00 in
17:50 98.6 °F 54.4 °F 29.81 in NW 3.5 mph 3.5 mph 23 % 0.00 in
17:55 98.8 °F 52.1 °F 29.81 in West 3.5 mph 3.5 mph 21 % 0.00 in
18:00 98.9 °F 55.8 °F 29.81 in ENE 3.5 mph 3.5 mph 24 % 0.00 in
18:05 98.7 °F 56.8 °F 29.81 in NNW 2.3 mph 2.3 mph 25 % 0.00 in
18:10 98.7 °F 56.8 °F 29.81 in NW 2.3 mph 2.3 mph 25 % 0.00 in
18:15 98.7 °F 59.9 °F 29.81 in NW 2.3 mph 2.3 mph 28 % 0.00 in
18:20 98.3 °F 59.6 °F 29.81 in NW 3.5 mph 3.5 mph 28 % 0.00 in
18:25 98.1 °F 60.4 °F 29.81 in NNW 2.3 mph 2.3 mph 29 % 0.00 in
18:30 98.2 °F 60.5 °F 29.81 in NW 2.3 mph 2.3 mph 29 % 0.00 in
18:35 97.8 °F 61.1 °F 29.81 in NW 3.5 mph 3.5 mph 30 % 0.00 in
18:40 97.7 °F 61.0 °F 29.81 in NW 2.3 mph 2.3 mph 30 % 0.00 in
18:45 97.5 °F 62.7 °F 29.81 in NW 2.3 mph 2.3 mph 32 % 0.00 in
18:50 97.3 °F 62.5 °F 29.81 in North 1.2 mph 1.2 mph 32 % 0.00 in
18:55 97.1 °F 62.3 °F 29.81 in NW 2.3 mph 2.3 mph 32 % 0.00 in
19:00 96.6 °F 62.8 °F 29.81 in WNW 2.3 mph 2.3 mph 33 % 0.00 in
19:02 96.4 °F 62.6 °F 29.81 in NW 2.3 mph 2.3 mph 33 % 0.00 in
19:07 96.0 °F 62.3 °F 29.80 in NW 2.3 mph 2.3 mph 33 % 0.00 in
19:12 96.0 °F 63.1 °F 29.81 in WNW 2.3 mph 2.3 mph 34 % 0.00 in
19:17 95.8 °F 62.9 °F 29.81 in NW 1.2 mph   34 % 0.00 in
19:22 95.0 °F 62.2 °F 29.81 in NW 2.3 mph 2.3 mph 34 % 0.00 in
19:27 94.3 °F 63.2 °F 29.81 in NW 1.2 mph 1.2 mph 36 % 0.00 in
19:32 93.6 °F 62.6 °F 29.81 in NW 2.3 mph 2.3 mph 36 % 0.00 in
19:37 93.1 °F 63.0 °F 29.81 in NW 1.2 mph 1.2 mph 37 % 0.00 in
19:42 92.6 °F 63.3 °F 29.81 in WNW 1.2 mph   38 % 0.00 in
19:47 92.1 °F 62.8 °F 29.80 in Calm     38 % 0.00 in
19:52 91.7 °F 64.0 °F 29.81 in Calm     40 % 0.00 in
19:57 91.2 °F 63.5 °F 29.80 in Calm     40 % 0.00 in
20:02 90.6 °F 63.7 °F 29.80 in Calm   0.2 mph 41 % 0.00 in
20:07 90.0 °F 63.8 °F 29.80 in Calm     42 % 0.00 in
20:12 89.3 °F 64.5 °F 29.81 in Calm     44 % 0.00 in
20:17 88.7 °F 65.3 °F 29.81 in Calm     46 % 0.00 in
20:22 88.2 °F 64.8 °F 29.81 in Calm     46 % 0.00 in
20:27 87.6 °F 64.9 °F 29.81 in Calm     47 % 0.00 in
20:32 87.1 °F 65.0 °F 29.81 in Calm     48 % 0.00 in
20:37 86.5 °F 66.2 °F 29.81 in Calm     51 % 0.00 in
20:42 85.9 °F 63.9 °F 29.81 in Calm     48 % 0.00 in
20:47 85.6 °F 65.4 °F 29.81 in Calm     51 % 0.00 in
20:52 85.2 °F 65.0 °F 29.81 in Calm     51 % 0.00 in
20:57 84.7 °F 64.6 °F 29.82 in Calm     51 % 0.00 in
21:03 84.2 °F 64.7 °F 29.82 in Calm     52 % 0.00 in
21:08 83.7 °F 64.8 °F 29.82 in Calm     53 % 0.00 in
21:13 83.3 °F 64.4 °F 29.82 in Calm     53 % 0.00 in
21:18 83.0 °F 66.7 °F 29.82 in Calm     58 % 0.00 in
21:23 82.6 °F 65.8 °F 29.83 in Calm     57 % 0.00 in
21:28 82.3 °F 66.5 °F 29.83 in Calm     59 % 0.00 in
21:33 82.1 °F 66.8 °F 29.83 in Calm     60 % 0.00 in
21:38 81.9 °F 65.7 °F 29.83 in Calm     58 % 0.00 in
21:43 81.7 °F 65.5 °F 29.83 in Calm     58 % 0.00 in
21:48 81.6 °F 64.9 °F 29.83 in Calm     57 % 0.00 in
21:53 81.5 °F 64.3 °F 29.83 in Calm     56 % 0.00 in
21:58 81.5 °F 64.3 °F 29.84 in Calm     56 % 0.00 in
22:03 82.7 °F 63.3 °F 29.84 in Calm     52 % 0.00 in
22:08 84.0 °F 63.4 °F 29.84 in Calm     50 % 0.00 in
22:13 84.5 °F 62.7 °F 29.84 in Calm     48 % 0.00 in
22:18 84.7 °F 62.8 °F 29.84 in Calm     48 % 0.00 in
22:23 84.3 °F 64.8 °F 29.84 in Calm     52 % 0.00 in
22:28 83.5 °F 64.6 °F 29.84 in Calm     53 % 0.00 in
22:33 82.6 °F 64.8 °F 29.84 in Calm     55 % 0.00 in
22:38 82.1 °F 63.8 °F 29.84 in Calm     54 % 0.00 in
22:43 81.5 °F 63.8 °F 29.84 in Calm     55 % 0.00 in
22:48 81.0 °F 63.8 °F 29.84 in Calm     56 % 0.00 in
22:53 80.5 °F 64.4 °F 29.84 in Calm     58 % 0.00 in
22:58 79.8 °F 64.2 °F 29.85 in Calm     59 % 0.00 in
23:03 79.2 °F 63.6 °F 29.85 in Calm     59 % 0.00 in
23:08 78.8 °F 64.2 °F 29.85 in WNW 1.2 mph 1.2 mph 61 % 0.00 in
23:13 78.4 °F 64.8 °F 29.85 in Calm     63 % 0.00 in
23:18 78.1 °F 64.9 °F 29.85 in WNW 1.2 mph   64 % 0.00 in
23:23 77.9 °F 65.2 °F 29.85 in WNW 1.2 mph   65 % 0.00 in
23:28 77.6 °F 64.9 °F 29.85 in Calm     65 % 0.00 in
23:33 77.4 °F 65.1 °F 29.85 in Calm     66 % 0.00 in
23:38 77.2 °F 65.4 °F 29.85 in Calm     67 % 0.00 in
23:43 77.0 °F 65.2 °F 29.85 in Calm     67 % 0.00 in
23:48 77.0 °F 65.2 °F 29.85 in Calm     67 % 0.00 in
23:53 76.8 °F 64.6 °F 29.85 in Calm     66 % 0.00 in
23:58 76.8 °F 64.6 °F 29.85 in Calm     66 % 0.00 in
Park Place, Exeter, Tulare County, California, USA
Compliments of Weather Underground - 2.75 mb